Date String (YYYY-MM-DD hh:mm:ss) UTC,Instrument flags,absolute air pressure of the measurement (hPa),sample flow rate (lpm),inlet stack bypass flow (lpm),air temperature of the measurement (°C),ambient temperature measured by the external sensor (°C),aerosol sample conditioner tube jacket temperature (°C),OPC LED temperature (°C),internal box temperature (°C),relative humidity of the measurement (%),span deviation,mass concentration of particles derived from Lorenz-Mie calculation of OPC scattering (μg/m³),mass concentration of particles derived from Lorenz-Mie calculation of OPC scattering (μg/m³),mass concentration of particles derived from Lorenz-Mie calculation of OPC scattering (μg/m³)
DateTimeUTC,F1_M11,P_M11,Q1_M11,Q2_M11,T1_M11,T2_M11,T3_M11,T4_M11,T5_M11,U1_M11,ZSPAN_M11,X2_M11,X0_M11,X1_M11
2023-08-17 11:00:00,SystemResetWarning,0835.3,5.00,000.00,028.2,026.5,000.0,036.7,029.9,28.1,0004.0,0017.84,0029.83,0016.40
2023-08-17 11:01:00,SystemResetWarning,0835.3,5.00,000.00,028.2,026.7,000.0,036.7,030.0,28.1,0004.0,0017.92,0029.07,0016.47
2023-08-17 11:02:00,SystemResetWarning,0835.6,5.00,000.00,028.3,026.9,000.0,036.7,030.0,28.1,0004.1,0018.01,0029.80,0016.55
2023-08-17 11:03:00,SystemResetWarning,0835.3,5.00,000.00,028.3,027.0,000.0,036.8,030.0,28.1,0004.1,0018.04,0029.59,0016.59
2023-08-17 11:04:00,SystemResetWarning,0835.4,4.99,000.00,028.3,027.1,000.0,036.8,030.1,28.0,0003.9,0018.05,0028.52,0016.64
2023-08-17 11:05:00,SystemResetWarning,0835.4,5.00,000.00,028.4,027.2,000.0,036.8,030.1,27.9,0003.6,0017.99,0027.97,0016.64
2023-08-17 11:06:00,SystemResetWarning,0835.5,5.00,000.00,028.4,027.2,000.0,036.8,030.2,27.9,0003.3,0018.00,0028.33,0016.65
2023-08-17 11:07:00,SystemResetWarning,0835.5,5.00,000.00,028.4,025.7,000.0,036.7,029.9,27.9,0002.9,0018.02,0029.42,0016.65
2023-08-17 11:08:00,SystemResetWarning,0835.5,5.01,000.00,028.3,024.6,000.0,036.6,029.7,28.0,0002.8,0018.00,0029.62,0016.66
2023-08-17 11:09:00,SystemResetWarning,0835.5,5.01,000.00,028.2,024.6,000.0,036.6,029.6,28.2,0002.7,0017.94,0029.31,0016.63
2023-08-17 11:10:00,SystemResetWarning,0835.5,5.01,000.00,028.2,024.8,000.0,036.6,029.5,28.3,0002.8,0017.92,0028.81,0016.64
2023-08-17 11:11:00,SystemResetWarning,0835.5,5.00,000.00,028.1,025.2,000.0,036.7,029.6,28.4,0003.0,0017.91,0027.80,0016.62
2023-08-17 11:12:00,SystemResetWarning,0835.5,5.00,000.00,028.1,025.6,000.0,036.7,029.7,28.3,0003.1,0017.84,0027.25,0016.55
2023-08-17 11:13:00,SystemResetWarning,0835.5,4.99,000.00,028.1,025.9,000.0,036.7,029.7,28.2,0003.2,0017.82,0026.73,0016.51
2023-08-17 11:14:00,SystemResetWarning,0835.5,5.01,000.00,028.2,026.2,000.0,036.7,029.8,28.2,0003.2,0017.82,0027.76,0016.51
2023-08-17 11:15:00,SystemResetWarning,0835.5,5.00,000.00,028.2,026.4,000.0,036.7,029.9,28.3,0003.3,0017.82,0028.47,0016.51
2023-08-17 11:16:00,SystemResetWarning,0835.5,5.00,000.00,028.2,026.6,000.0,036.7,029.9,28.3,0003.4,0017.88,0028.22,0016.58
2023-08-17 11:17:00,SystemResetWarning,0835.5,5.00,000.00,028.2,026.8,000.0,036.7,030.0,28.3,0003.4,0017.98,0028.72,0016.69
2023-08-17 11:18:00,SystemResetWarning,0835.5,5.00,000.00,028.3,026.9,000.0,036.7,030.0,28.2,0003.2,0018.06,0028.21,0016.77
2023-08-17 11:19:00,SystemResetWarning,0835.6,4.98,000.00,028.3,027.0,000.0,036.8,030.0,28.1,0003.1,0018.12,0029.18,0016.84
2023-08-17 11:20:00,SystemResetWarning,0835.6,5.00,000.00,028.3,027.1,000.0,036.8,030.1,28.1,0003.0,0018.22,0030.08,0016.93
2023-08-17 11:21:00,SystemResetWarning,0835.7,5.01,000.00,028.4,027.2,000.0,036.8,030.1,28.2,0002.6,0018.35,0030.80,0017.03
2023-08-17 11:22:00,SystemResetWarning,0835.7,5.01,000.00,028.4,027.2,000.0,036.8,030.1,28.4,0002.1,0018.39,0031.22,0017.08
2023-08-17 11:23:00,SystemResetWarning,0835.7,4.98,000.00,028.4,025.6,000.0,036.7,030.0,28.2,0001.9,0018.45,0031.85,0017.17
2023-08-17 11:24:00,SystemResetWarning,0835.6,5.00,000.00,028.3,024.5,000.0,036.6,029.7,28.4,0001.8,0018.50,0032.19,0017.21
2023-08-17 11:25:00,SystemResetWarning,0835.6,5.01,000.00,028.2,024.5,000.0,036.6,029.5,28.6,0001.9,0018.49,0032.04,0017.23
2023-08-17 11:26:00,SystemResetWarning,0835.8,5.01,000.00,028.1,024.8,000.0,036.6,029.5,28.8,0001.9,0018.55,0032.19,0017.29
2023-08-17 11:27:00,SystemResetWarning,0835.7,4.99,000.00,028.1,025.1,000.0,036.6,029.6,28.9,0002.0,0018.62,0032.93,0017.32
2023-08-17 11:28:00,SystemResetWarning,0835.7,5.00,000.00,028.1,025.5,000.0,036.7,029.7,28.9,0002.1,0018.61,0032.11,0017.31
2023-08-17 11:29:00,SystemResetWarning,0835.8,5.00,000.00,028.1,025.8,000.0,036.7,029.7,29.1,0002.1,0018.60,0031.65,0017.32
2023-08-17 11:30:00,SystemResetWarning,0835.8,5.00,000.00,028.1,026.1,000.0,036.7,029.8,29.2,0002.0,0018.60,0030.59,0017.32
2023-08-17 11:31:00,SystemResetWarning,0835.8,5.00,000.00,028.2,026.3,000.0,036.7,029.8,29.1,0001.9,0018.54,0029.69,0017.27
2023-08-17 11:32:00,SystemResetWarning,0835.8,4.99,000.00,028.2,026.5,000.0,036.7,029.9,28.9,0002.3,0018.41,0028.87,0017.20
2023-08-17 11:33:00,SystemResetWarning,0835.8,5.00,000.00,028.2,026.7,000.0,036.7,029.9,28.8,0002.6,0018.32,0028.48,0017.12
2023-08-17 11:34:00,SystemResetWarning,0835.8,5.00,000.00,028.2,026.9,000.0,036.7,030.0,28.7,0002.4,0018.25,0027.81,0017.04
2023-08-17 11:35:00,SystemResetWarning,0835.9,5.00,000.00,028.3,027.0,000.0,036.7,030.0,28.8,0002.5,0018.20,0028.00,0016.97
2023-08-17 11:36:00,SystemResetWarning,0835.9,5.00,000.00,028.3,027.1,000.0,036.8,030.0,29.0,0002.2,0018.16,0028.06,0016.89
2023-08-17 11:37:00,SystemResetWarning,0835.9,5.00,000.00,028.3,027.2,000.0,036.8,030.1,29.0,0002.2,0018.12,0027.95,0016.78
2023-08-17 11:38:00,SystemResetWarning,0835.9,5.00,000.00,028.4,027.2,000.0,036.8,030.1,28.9,0002.0,0018.05,0026.60,0016.68
2023-08-17 11:39:00,SystemResetWarning,0835.9,5.00,000.00,028.4,027.3,000.0,036.8,030.2,29.1,0001.9,0017.95,0027.03,0016.59
2023-08-17 11:40:00,SystemResetWarning,0835.9,5.00,000.00,028.4,026.8,000.0,036.8,030.1,29.0,0001.8,0017.79,0026.77,0016.50
2023-08-17 11:41:00,SystemResetWarning,0835.9,4.99,000.00,028.4,025.0,000.0,036.7,029.8,29.1,0002.1,0017.71,0026.38,0016.41
2023-08-17 11:42:00,SystemResetWarning,0835.9,5.02,000.00,028.3,024.4,000.0,036.6,029.7,29.4,0002.2,0017.65,0026.28,0016.36
2023-08-17 11:43:00,SystemResetWarning,0835.9,5.00,000.00,028.2,024.5,000.0,036.6,029.5,29.6,0002.1,0017.59,0026.78,0016.33
2023-08-17 11:44:00,SystemResetWarning,0835.9,4.99,000.00,028.1,024.9,000.0,036.7,029.5,29.9,0002.1,0017.58,0027.11,0016.31
2023-08-17 11:45:00,SystemResetWarning,0835.9,4.99,000.00,028.1,025.2,000.0,036.7,029.6,30.0,0002.4,0017.61,0027.95,0016.29
2023-08-17 11:46:00,SystemResetWarning,0835.9,5.00,000.00,028.1,025.6,000.0,036.7,029.7,30.0,0002.5,0017.58,0028.16,0016.27
2023-08-17 11:47:00,SystemResetWarning,0835.9,5.01,000.00,028.1,025.9,000.0,036.7,029.8,29.9,0002.7,0017.57,0027.27,0016.26
2023-08-17 11:48:00,SystemResetWarning,0835.9,5.00,000.00,028.2,026.2,000.0,036.7,029.8,30.0,0002.6,0017.53,0027.40,0016.26
2023-08-17 11:49:00,SystemResetWarning,0836.0,4.99,000.00,028.2,026.4,000.0,036.7,029.9,29.9,0002.6,0017.51,0027.57,0016.26
2023-08-17 11:50:00,SystemResetWarning,0835.9,5.00,000.00,028.2,026.6,000.0,036.7,029.9,29.9,0002.6,0017.54,0027.03,0016.31
2023-08-17 11:51:00,SystemResetWarning,0836.0,5.00,000.00,028.2,026.8,000.0,036.7,030.0,29.9,0002.7,0017.59,0027.05,0016.32
2023-08-17 11:52:00,SystemResetWarning,0836.1,5.00,000.00,028.3,026.9,000.0,036.7,030.0,29.8,0002.6,0017.59,0028.71,0016.36
2023-08-17 11:53:00,SystemResetWarning,0836.1,5.01,000.00,028.3,027.0,000.0,036.8,030.0,29.7,0002.8,0017.63,0030.11,0016.38
2023-08-17 11:54:00,SystemResetWarning,0836.1,4.99,000.00,028.3,027.1,000.0,036.8,030.1,29.8,0002.9,0017.71,0030.95,0016.42
2023-08-17 11:55:00,SystemResetWarning,0836.1,4.99,000.00,028.4,027.2,000.0,036.8,030.1,29.8,0002.9,0017.76,0030.94,0016.47
2023-08-17 11:56:00,SystemResetWarning,0836.1,5.00,000.00,028.4,027.3,000.0,036.8,030.2,29.7,0002.5,0017.80,0030.91,0016.50
2023-08-17 11:57:00,SystemResetWarning,0836.1,4.99,000.00,028.4,026.9,000.0,036.8,030.1,29.7,0002.3,0017.83,0030.45,0016.57
2023-08-17 11:58:00,SystemResetWarning,0836.1,5.01,000.00,028.4,025.0,000.0,036.7,029.9,29.8,0002.3,0017.88,0030.52,0016.65
2023-08-17 11:59:00,SystemResetWarning,0836.1,5.00,000.00,028.3,024.3,000.0,036.6,029.7,30.0,0002.4,0017.95,0030.91,0016.72
